Location: Unspecified
(0.0000°N, 0.0000°E)
Time: 07:41:01
(UTC+00:00)

LightSail 2 - Pass Details

Date: 13 October 2019
Orbit: 707 x 723 km, 24.0° (Epoch: 14 October)

Event Time Altitude Azimuth Distance (km) Brightness Sun altitude
Exits shadow 03:10:36 14° 136° (SE) 1,916 7.8 -38.5°
Drops below altitude 10° 03:11:21 10° 133° (SE) 2,176 8.2 -38.4°
Sets 03:13:53 0° 127° (SE) 3,094 9.2 -37.7°
